Regional Weather Roundup
Issued by NWS Newport/Morehead, NC

Current Version | Previous Version | Text Only | Print | Product List | Glossary On
Versions: 1 2 3 4 5 6 7 8 9 10 11 12 13 14 15 16 17 18 19 20 21 22 23 24 25 26 27 28 29 30 31 32 33 34 35 36 37 38 39 40 41 42 43 44 45 46 47 48 49 50
000
ASUS42 KMHX 290525
RWRMHX
WEATHER ROUNDUP FOR EASTERN NORTH CAROLINA
NATIONAL WEATHER SERVICE NEWPORT/MOREHEAD CITY NC
100 AM EDT SAT APR 29 2017

NOTE: "FAIR" INDICATES FEW OR NO CLOUDS BELOW 12,000 FEET
WITH NO SIGNIFICANT WEATHER AND/OR OBSTRUCTIONS TO VISIBILITY

NCZ015>017-031-032-045>047-102-103-290600-
NORTH COAST

CITY           SKY/WX    TMP DP  RH WIND       PRES   REMARKS
EDENTON        CLOUDY    76  73  87 SW12      30.14S
ELIZABETH CITY CLOUDY    75  74  96 S16       30.12S
KITTY HAWK     CLEAR     74  74 100 SW7       30.13S
MANTEO         MOCLDY    73  72  95 SW14      30.16R

$$

NCZ045>047-081-094-103-104-290600-
CENTRAL COAST

CITY           SKY/WX    TMP DP  RH WIND       PRES   REMARKS
FRISCO         MOCLDY    74  72  93 S9        30.18S FOG

$$

NCZ095-097-098-100-101-290600-
SOUTHERN COAST

CITY           SKY/WX    TMP DP  RH WIND       PRES   REMARKS
BEAUFORT       CLEAR     73  73 100 S12       30.18R
CEDAR ISLAND   NOT AVBL
JACKSONVILLE   CLOUDY    76  74  93 SW7       30.16R
PINEY ISLAND   PTCLDY   N/A N/A N/A S10       30.17R
WILMINGTON     CLOUDY    76  74  93 S8        30.17R


$$

NCZ011>013-027>030-043-044-078>080-089-090>093-098-290600-
COASTAL PLAIN

CITY           SKY/WX    TMP DP  RH WIND       PRES   REMARKS
AHOSKIE          N/A     74  72  95 S5        30.11S
CLINTON        CLOUDY    75  74  95 S6        30.15S
ELIZABETHTOWN  MOCLDY    76  73  91 S7        30.15S
GOLDSBORO      CLOUDY    76  76 100 S12       30.13R
GREENVILLE     CLEAR     73  73 100 SW7       30.15R
HAVELOCK       CLOUDY    76  72  87 S13G21    30.17S
KENANSVILLE    CLOUDY    75  72  88 SW3       30.15S
KINSTON        CLOUDY    76  73  90 S9        30.15S
NEW BERN       MOCLDY    75  73  93 SW8       30.17R
RICHLANDS      CLOUDY    75  73  93 S12       30.17R
ROCKY MOUNT    CLOUDY    76  74  93 S12G21    30.12S
WASHINGTON     CLEAR     74  72  92 S8        30.14S
WHITEVILLE     CLOUDY    76  73  88 S8        30.16R

$$

AMZ130-135-150-152-154-156-158-170-250-252-270-ANZ085-086-088-633-658-670-290600-
MARINE OBSERVATIONS

STATION/POSITION TIME  TEMP    WIND        PRES    WAVE   SWELL
                       AIR SEA DIR/SP/G            HT/PER HT/PER
                 (UTC) (F)     (DEG/KT/KT) (MB)    (FT/S) (FT/S)
CHESAPEAKE LIGHT NOT AVBL
64 E VA BEACH    0450   63 57  200/ 14/ 16 1020.8    4/ 8   2/ 8
DUCK             0500   75 59  200/ 16/ 20 1019.8
2 E DUCK         0500      60                N/A     2/ 8
OREGON INLET     0500   74 76  200/ 17/ 19 1021.1
13E OREGON INLT  0448      62                N/A     4/ 8   2/ 8
HATTERAS CG      0500   74 73  180/  4/  8 1021.7
DIAMOND BUOY     0450   77 76  200/ 16/ 19 1022.1    4/ 8   2/ 8
CAPE LOOKOUT     0500   73     190/  8/  9 1021.8
BEAUFORT LAB     0500   73 70  200/ 10/ 12 1021.1
30 SE NEW RVR IN 0508   73     200/ 10/ 14 1022.0
30 SE NEW RVR IN 0443      72                N/A     4/ 8
27 SE WRIGHTSVLE 0508   74 73  190/ 10/ 16 1021.5
5 SE WRIGHTSVLE  0508   72 70  190/ 12/ 16 1021.4
225 S CAPE HAT   0450   74 74  150/ 14/ 17 1024.3    3/ 8   2/ 8
41 SE CHARLESTON 0500   76 75  170/ 12/ 16 1021.0

$$




USA.gov is the U.S. government's official web portal to all federal, state and local government web resources and services.